Waarnemingen

Advertentie
Mijn weer
Manschnow, Duitsland (10396): temperatuur & dauwpunt: 22.05.2018 12:00:00 - 28.05.2018 12:00:00 (CEST)Manschnow, Duitsland (10396): temperatuur 5cm & temperatuur -5cm: 22.05.2018 12:00:00 - 28.05.2018 12:00:00 (CEST)Manschnow, Duitsland (10396): temperatuur -20cm & temperatuur -100cm: 22.05.2018 12:00:00 - 28.05.2018 12:00:00 (CEST)Manschnow, Duitsland (10396): windsnelheid & windstoten: 22.05.2018 12:00:00 - 28.05.2018 12:00:00 (CEST)Manschnow, Duitsland (10396): windrichting: 22.05.2018 12:00:00 - 28.05.2018 12:00:00 (CEST)Manschnow, Duitsland (10396): luchtdruk: 22.05.2018 12:00:00 - 28.05.2018 12:00:00 (CEST)Manschnow, Duitsland (10396): zicht: 22.05.2018 12:00:00 - 28.05.2018 12:00:00 (CEST)Manschnow, Duitsland (10396): Zonneschijnduur: 22.05.2018 12:00:00 - 28.05.2018 12:00:00 (CEST)Manschnow, Duitsland (10396): neerslag: 22.05.2018 12:00:00 - 28.05.2018 12:00:00 (CEST)
Datum & Tijd tt [°C] td [°C] tt 5cm [°C] tt -5cm [°C] tt -20cm [°C] tt -100cm [°C] ff [km/u] ff [kn] fx [km/u] fx [kn] dd ppp [hPa] vv [km] sd [min] rr [mm]
28.05.2018 12:00:00 - - - - - - - - - - - - - - -
28.05.2018 11:00:00 27,7 15,7 30,9 27,9 21,2 16,1 19 10 25 13 O 1021,4 11 60 0,0
28.05.2018 10:00:00 24,2 17,1 27,9 25,1 20,8 16,1 13 7 22 12 O 1021,7 11 60 0,0
28.05.2018 09:00:00 21,2 16,6 24,5 22,3 20,6 16,1 10 6 19 10 O 1021,8 10 60 0,0
28.05.2018 08:00:00 19,4 16,0 21,3 20,2 20,7 16,1 10 6 19 10 O 1021,5 12 60 0,0
28.05.2018 07:00:00 16,8 14,9 17,1 18,7 20,9 16,1 11 6 23 12 O 1021,3 7 44 0,0
28.05.2018 06:00:00 16,2 14,6 15,5 18,4 21,1 16,1 10 5 23 12 ONO 1021,1 8 0 0,0
28.05.2018 05:00:00 16,1 14,7 14,9 18,6 21,4 16,0 13 7 22 12 O 1021,1 9 0 0,0
28.05.2018 04:00:00 16,2 14,7 14,9 18,8 21,7 16,0 6 4 19 11 O 1021,2 10 0 0,0
28.05.2018 03:00:00 16,4 15,2 14,8 19,1 22,1 16,0 7 4 15 8 ONO 1021,1 12 0 0,0
28.05.2018 02:00:00 16,1 15,0 14,6 19,5 22,4 16,0 7 4 16 9 NO 1021,2 11 0 0,0
28.05.2018 01:00:00 16,3 15,0 14,7 20,0 22,8 16,0 6 3 16 9 ONO 1021,3 12 0 0,0
28.05.2018 00:00:00 16,6 15,0 15,2 20,6 23,2 16,0 8 4 16 9 ONO 1021,2 15 0 0,0
27.05.2018 23:00:00 17,4 15,0 16,2 21,3 23,7 16,0 9 5 20 11 ONO 1021,1 17 0 0,0
27.05.2018 22:00:00 18,4 14,8 17,2 22,1 24,1 16,0 10 6 25 14 ONO 1021,5 17 0 0,0
27.05.2018 21:00:00 19,2 14,6 18,0 23,3 24,6 16,0 11 6 27 14 NO 1020,9 18 0 0,0
27.05.2018 20:00:00 19,9 15,9 19,2 24,8 24,9 15,9 16 8 29 16 NNO 1020,3 15 22 0,0
27.05.2018 19:00:00 20,9 16,6 20,9 26,9 25,2 15,9 16 9 27 14 NNO 1019,9 13 28 0,0
27.05.2018 18:00:00 21,7 17,3 19,9 28,6 25,2 15,9 8 5 23 12 WNW 1019,8 15 1 1,1
27.05.2018 17:00:00 24,7 13,9 27,7 31,1 25,0 15,9 9 5 22 12 NNW 1019,7 16 9 0,0
27.05.2018 16:00:00 28,7 11,7 33,5 31,0 24,8 15,9 10 5 23 12 OZO 1019,5 16 12 0,0
27.05.2018 15:00:00 27,0 13,4 27,8 33,1 24,2 15,9 10 5 24 13 O 1019,8 18 23 0,0
27.05.2018 14:00:00 28,0 12,4 32,1 33,8 23,5 15,9 15 8 31 17 OZO 1020,7 12 58 0,0
27.05.2018 13:00:00 27,5 12,3 32,7 32,0 22,8 15,8 13 7 26 14 ZO 1021,2 17 60 0,0
27.05.2018 12:00:00 26,7 13,5 31,4 29,8 22,2 15,8 14 7 23 12 O 1021,5 20 53 0,0
27.05.2018 11:00:00 24,4 15,7 29,6 27,3 21,9 15,8 5 3 12 6 O 1021,7 21 50 0,0
27.05.2018 10:00:00 21,1 15,5 23,3 25,1 21,6 15,8 5 3 10 6 O 1021,7 18 40 0,0
27.05.2018 09:00:00 19,9 14,6 23,2 23,0 21,5 15,8 5 3 11 6 O 1021,7 14 53 0,0
27.05.2018 08:00:00 18,0 14,5 18,8 21,1 21,7 15,8 4 2 11 6 N 1021,5 13 51 0,0
27.05.2018 07:00:00 15,6 14,4 16,3 19,6 22,0 15,8 7 4 11 6 N 1021,3 8 35 0,0
27.05.2018 06:00:00 14,2 14,1 13,2 19,8 22,3 15,8 5 3 13 7 N 1021,5 7 0 0,0
27.05.2018 05:00:00 14,5 14,3 13,9 20,4 22,7 15,8 6 3 10 5 WNW 1021,4 6 0 0,0
27.05.2018 04:00:00 14,9 14,4 14,4 21,0 23,0 15,8 6 3 14 8 WNW 1021,5 8 0 0,1
27.05.2018 03:00:00 16,5 15,1 15,4 21,6 23,3 15,7 8 5 16 9 ONO 1021,3 7 0 0,8
27.05.2018 02:00:00 16,4 14,2 15,2 22,2 23,7 15,7 6 4 10 5 N 1021,7 15 0 0,0
27.05.2018 01:00:00 16,7 14,1 15,7 22,7 24,1 15,7 4 2 8 5 NNW 1021,8 13 0 0,0
27.05.2018 00:00:00 16,4 13,4 15,3 23,3 24,6 15,7 4 2 7 4 NNW 1021,9 18 0 0,0
26.05.2018 23:00:00 17,4 12,9 16,4 24,2 25,0 15,7 3 2 8 4 NNW 1021,9 19 0 0,0
26.05.2018 22:00:00 19,6 13,6 16,8 25,6 25,4 15,7 4 2 11 6 ONO 1022,1 16 0 0,0
26.05.2018 21:00:00 21,0 13,7 19,8 27,1 25,8 15,7 7 4 14 8 NO 1021,6 23 4 0,0
26.05.2018 20:00:00 21,8 13,6 21,2 29,0 26,0 15,7 9 5 26 14 NNO 1021,3 25 21 0,0
26.05.2018 19:00:00 22,2 14,2 23,0 30,6 26,1 15,7 11 6 28 15 N 1021,2 21 3 0,0
26.05.2018 18:00:00 22,7 13,0 24,5 33,5 25,8 15,6 16 9 35 19 N 1020,9 22 34 0,0
26.05.2018 17:00:00 26,0 12,7 30,9 35,7 25,3 15,6 10 5 29 16 NNW 1021,1 27 49 0,0
26.05.2018 16:00:00 27,0 8,9 32,4 36,1 24,7 15,6 8 4 17 9 W 1021,3 26 60 0,0
26.05.2018 15:00:00 26,0 10,1 33,4 35,6 23,9 15,6 8 5 16 9 W 1021,7 26 60 0,0
26.05.2018 14:00:00 25,6 10,9 32,1 34,5 23,1 15,6 5 3 14 8 NNW 1022,0 23 60 0,0
26.05.2018 13:00:00 25,3 11,6 33,3 32,8 22,3 15,6 9 5 18 10 NW 1022,3 20 60 0,0
26.05.2018 12:00:00 23,5 9,8 29,8 30,6 21,5 15,6 5 3 15 8 NO 1022,6 22 60 0,0
26.05.2018 11:00:00 22,4 10,0 28,1 28,1 21,0 15,6 7 4 15 8 O 1022,8 29 60 0,0
26.05.2018 10:00:00 20,6 10,0 26,9 25,3 20,6 15,6 7 4 14 8 NO 1022,6 19 60 0,0
26.05.2018 09:00:00 18,8 13,5 22,8 22,4 20,4 15,5 4 2 13 7 OZO 1022,9 16 60 0,0
26.05.2018 08:00:00 16,8 13,0 20,0 20,1 20,5 15,5 6 4 16 9 O 1022,9 17 60 0,0
26.05.2018 07:00:00 14,7 12,1 16,3 18,3 20,7 15,5 8 4 13 7 O 1022,7 16 60 0,0
26.05.2018 06:00:00 10,8 9,6 10,2 17,5 21,1 15,5 2 1 5 3 W 1022,5 13 30 0,0
26.05.2018 05:00:00 10,7 10,0 7,8 18,0 21,5 15,5 3 2 7 4 NNO 1022,2 16 0 0,0
26.05.2018 04:00:00 10,6 9,0 8,6 18,7 21,9 15,5 3 2 8 4 WNW 1021,9 16 0 0,0
26.05.2018 03:00:00 12,9 11,5 9,3 19,4 22,4 15,5 3 2 6 3 O 1021,9 17 0 0,0
26.05.2018 02:00:00 14,4 11,4 12,3 20,0 22,8 15,5 5 3 13 7 ONO 1021,9 22 0 0,0
26.05.2018 01:00:00 13,6 11,0 10,2 20,9 23,3 15,5 0 0 8 4 N 1021,9 13 0 0,0
26.05.2018 00:00:00 15,7 11,2 12,2 22,0 23,8 15,5 5 3 12 6 O 1021,9 13 0 0,0
25.05.2018 23:00:00 16,9 12,0 13,2 23,2 24,3 15,5 5 3 14 8 ONO 1021,7 15 0 0,0
25.05.2018 22:00:00 18,7 11,6 16,9 24,7 24,7 15,5 9 5 18 10 O 1021,5 15 0 0,0
25.05.2018 21:00:00 20,9 10,0 19,6 26,5 25,0 15,4 10 6 28 15 O 1020,7 15 7 0,0
25.05.2018 20:00:00 23,0 9,0 22,1 28,5 25,1 15,4 14 7 23 12 ONO 1020,0 16 27 0,0
25.05.2018 19:00:00 23,8 10,1 23,9 30,8 25,1 15,4 11 6 34 19 N 1019,4 15 24 0,0
25.05.2018 18:00:00 26,3 7,6 29,5 32,5 24,7 15,4 11 6 24 13 NNO 1019,3 19 53 0,0
25.05.2018 17:00:00 27,1 7,0 32,5 33,7 24,2 15,4 6 3 23 13 ONO 1019,5 17 60 0,0
25.05.2018 16:00:00 26,8 7,3 32,2 33,9 23,6 15,4 9 5 24 13 ONO 1019,7 13 60 0,0
25.05.2018 15:00:00 26,0 8,0 32,3 33,1 22,9 15,4 9 5 22 12 ONO 1020,2 17 60 0,0
25.05.2018 14:00:00 25,3 8,0 32,3 31,4 22,2 15,4 10 5 29 15 ONO 1020,6 12 58 0,0
25.05.2018 13:00:00 24,6 9,2 28,0 30,7 21,5 15,4 16 9 28 15 ONO 1021,2 8 59 0,0
25.05.2018 12:00:00 24,4 10,6 30,1 29,2 20,9 15,3 11 6 22 12 O 1021,5 9 60 0,0
25.05.2018 11:00:00 22,2 11,0 27,2 26,8 20,3 15,3 11 6 20 11 O 1021,8 13 60 0,0
25.05.2018 10:00:00 20,1 11,1 25,0 23,9 20,0 15,3 9 5 18 10 ONO 1022,2 8 60 0,0
25.05.2018 09:00:00 18,3 10,2 22,3 21,3 19,9 15,3 11 6 24 13 ONO 1022,4 6 60 0,0
25.05.2018 08:00:00 16,3 9,0 18,5 19,4 20,0 15,3 15 8 31 17 O 1022,3 7 60 0,0
25.05.2018 07:00:00 15,2 8,5 16,0 18,1 20,2 15,3 13 7 29 16 O 1022,3 11 59 0,0
25.05.2018 06:00:00 14,5 8,0 13,5 17,7 20,5 15,3 13 7 24 13 ONO 1022,4 17 27 0,0
25.05.2018 05:00:00 14,4 8,1 12,9 18,1 20,9 15,3 12 6 22 12 ONO 1022,4 17 0 0,0
25.05.2018 04:00:00 14,8 9,1 13,5 18,7 21,2 15,3 11 6 23 12 ONO 1022,4 17 0 0,0
25.05.2018 03:00:00 16,0 9,7 14,6 19,3 21,6 15,3 12 7 24 13 ONO 1022,4 17 0 0,0
25.05.2018 02:00:00 16,3 10,8 14,7 19,8 21,9 15,3 11 6 20 11 ONO 1022,7 16 0 0,0
25.05.2018 01:00:00 17,2 10,5 15,5 20,5 22,3 15,2 11 6 25 13 ONO 1022,5 16 0 0,0
25.05.2018 00:00:00 18,0 10,3 16,2 21,1 22,8 15,2 10 5 19 10 ONO 1022,2 19 0 0,0
24.05.2018 23:00:00 18,5 10,5 16,4 22,1 23,2 15,2 9 5 15 8 ONO 1022,2 18 0 0,0
24.05.2018 22:00:00 19,2 10,5 16,0 23,4 23,5 15,2 7 4 12 7 O 1022,1 14 0 0,0
24.05.2018 21:00:00 20,8 10,0 18,1 25,2 23,8 15,2 6 4 16 9 O 1021,6 15 41 0,0
24.05.2018 20:00:00 23,1 9,6 23,1 27,1 23,8 15,2 14 7 24 13 O 1021,3 16 60 0,0
24.05.2018 19:00:00 24,5 9,8 26,1 28,6 23,7 15,2 14 8 34 19 O 1021,2 13 60 0,0
24.05.2018 18:00:00 25,1 9,1 27,8 29,7 23,5 15,2 16 9 32 18 ONO 1021,4 15 59 0,0
24.05.2018 17:00:00 25,0 9,3 27,8 30,4 23,1 15,2 20 11 36 20 NO 1021,6 9 56 0,0
24.05.2018 16:00:00 25,3 8,2 29,2 30,6 22,6 15,2 23 12 36 20 ONO 1022,0 8 53 0,0
24.05.2018 15:00:00 25,4 9,5 30,3 30,5 22,1 15,1 22 12 36 20 O 1022,7 6 58 0,0
24.05.2018 14:00:00 24,5 9,8 29,1 29,4 21,5 15,1 22 12 38 20 O 1023,4 8 60 0,0
24.05.2018 13:00:00 23,1 9,8 26,9 28,3 20,9 15,1 18 10 36 19 O 1024,0 8 60 0,0
24.05.2018 12:00:00 22,8 9,7 27,3 26,9 20,4 15,1 23 12 38 20 O 1024,5 4,1 59 0,0
24.05.2018 11:00:00 21,4 12,2 26,0 24,6 20,0 15,1 17 9 29 15 ONO 1024,7 6 60 0,0
24.05.2018 10:00:00 18,8 11,9 21,1 22,1 19,8 15,1 16 8 29 15 O 1025,1 9 60 0,0
24.05.2018 09:00:00 16,8 11,3 19,9 20,1 19,8 15,1 13 7 29 15 O 1025,2 9 59 0,0
24.05.2018 08:00:00 15,1 10,5 17,0 19,0 19,9 15,1 16 8 35 19 ONO 1025,1 9 60 0,0
24.05.2018 07:00:00 13,8 9,5 14,8 17,9 20,1 15,1 17 9 32 17 O 1024,8 10 60 0,0
24.05.2018 06:00:00 13,3 9,1 12,4 17,6 20,5 15,0 14 8 24 13 ONO 1024,6 16 29 0,0
24.05.2018 05:00:00 13,4 9,1 11,9 18,0 20,9 15,0 12 7 24 13 ONO 1024,4 23 0 0,0
24.05.2018 04:00:00 14,2 9,3 12,8 18,6 21,2 15,0 13 7 22 12 ONO 1024,6 24 0 0,0
24.05.2018 03:00:00 14,7 9,8 13,2 19,2 21,6 15,0 11 6 20 11 O 1024,6 34 0 0,0
24.05.2018 02:00:00 15,5 9,3 13,9 19,8 22,1 15,0 12 7 22 12 ONO 1024,2 19 0 0,0
24.05.2018 01:00:00 16,7 8,9 15,1 20,6 22,5 15,0 11 6 21 12 ONO 1023,7 19 0 0,0
24.05.2018 00:00:00 17,4 9,2 15,1 21,4 23,0 15,0 9 5 14 7 ONO 1023,5 20 0 0,0
23.05.2018 23:00:00 18,2 9,7 14,7 22,6 23,4 15,0 5 3 11 6 NO 1023,1 19 0 0,0
23.05.2018 22:00:00 20,0 9,5 17,8 24,1 23,8 15,0 8 5 16 8 NO 1022,9 20 0 0,0
23.05.2018 21:00:00 21,4 9,5 19,9 25,6 24,1 15,0 8 4 23 12 NNO 1022,0 24 0 0,0
23.05.2018 20:00:00 22,9 9,1 22,1 27,4 24,2 15,0 13 7 27 15 NNO 1021,4 28 29 0,0
23.05.2018 19:00:00 23,8 9,1 24,0 29,3 24,2 15,0 15 8 27 15 NNO 1021,0 23 51 0,0
23.05.2018 18:00:00 24,9 8,9 26,7 31,1 23,9 14,9 14 8 25 13 NNO 1020,9 14 60 0,0
23.05.2018 17:00:00 25,7 8,2 29,7 32,3 23,4 14,9 13 7 23 12 NO 1021,0 12 60 0,0
23.05.2018 16:00:00 25,7 8,0 30,4 32,6 22,8 14,9 12 7 26 14 NNO 1021,2 8 60 0,0
23.05.2018 15:00:00 24,8 6,3 31,7 32,2 22,1 14,9 10 5 26 14 NNO 1021,7 15 60 0,0
23.05.2018 14:00:00 25,2 7,2 30,6 31,1 21,3 14,9 12 6 26 14 O 1021,8 13 60 0,0
23.05.2018 13:00:00 24,9 6,8 30,5 29,7 20,6 14,9 16 9 29 15 O 1021,9 11 60 0,0
23.05.2018 12:00:00 23,5 9,3 30,6 27,7 19,9 14,9 11 6 24 13 ONO 1021,6 9 60 0,0
23.05.2018 11:00:00 22,3 9,8 26,4 25,7 19,3 14,9 15 8 26 14 O 1021,5 7 60 0,0
23.05.2018 10:00:00 21,6 9,7 26,9 23,1 19,0 14,9 11 6 22 12 NO 1021,2 16 60 0,0
23.05.2018 09:00:00 18,6 9,9 22,4 20,3 18,8 14,9 10 5 18 10 ONO 1021,2 16 60 0,0
23.05.2018 08:00:00 15,8 9,3 19,2 18,2 18,9 14,9 9 5 16 9 NO 1020,8 14 60 0,0
23.05.2018 07:00:00 13,0 10,0 14,8 16,3 19,2 14,8 2 1 5 3 N 1020,2 16 60 0,0
23.05.2018 06:00:00 9,0 8,2 7,0 15,7 19,6 14,8 3 2 5 3 NNW 1019,7 13 26 0,0
23.05.2018 05:00:00 8,4 7,7 5,5 16,2 20,0 14,8 2 1 7 4 N 1019,0 13 0 0,0
23.05.2018 04:00:00 9,2 7,6 6,6 16,9 20,4 14,8 4 2 8 5 NNW 1018,7 18 0 0,0
23.05.2018 03:00:00 9,5 7,0 7,3 17,7 20,9 14,8 6 4 8 5 WNW 1018,4 20 0 0,0
23.05.2018 02:00:00 11,4 7,7 8,2 18,5 21,4 14,8 2 1 8 4 NO 1018,2 21 0 0,0
23.05.2018 01:00:00 14,3 8,5 8,8 19,4 21,9 14,8 5 3 13 7 O 1018,1 17 0 0,0
23.05.2018 00:00:00 15,0 8,2 10,4 20,4 22,3 14,8 4 2 12 7 ONO 1017,7 19 0 0,0
22.05.2018 23:00:00 17,1 7,4 12,3 21,6 22,8 14,8 6 4 12 7 ONO 1017,0 21 0 0,0
22.05.2018 22:00:00 18,3 8,0 14,7 23,1 23,2 14,8 6 4 10 5 NO 1016,5 19 0 0,0
22.05.2018 21:00:00 20,2 8,1 16,5 25,0 23,5 14,8 5 3 11 6 NO 1015,8 20 41 0,0
22.05.2018 20:00:00 22,2 7,2 22,2 27,0 23,7 14,8 7 4 22 12 ONO 1015,5 29 60 0,0
22.05.2018 19:00:00 22,9 7,0 24,5 29,1 23,6 14,8 11 6 22 12 ONO 1015,2 19 60 0,0
22.05.2018 18:00:00 23,5 6,3 27,0 30,6 23,3 14,8 10 5 29 16 ONO 1015,1 14 60 0,0
22.05.2018 17:00:00 23,7 6,1 27,9 31,6 22,8 14,8 12 6 23 12 ONO 1015,2 14 60 0,0
22.05.2018 16:00:00 23,5 5,0 30,4 31,9 22,1 14,8 9 5 25 13 NO 1015,3 11 60 0,0
22.05.2018 15:00:00 24,4 5,8 29,7 31,5 21,4 14,7 10 5 29 16 O 1015,6 21 58 0,0
22.05.2018 14:00:00 23,3 4,7 29,8 30,4 20,6 14,7 12 6 25 14 O 1015,6 12 60 0,0
22.05.2018 13:00:00 23,5 6,4 29,4 28,9 19,8 14,7 13 7 30 16 NO 1015,9 11 58 0,0
22.05.2018 12:00:00 22,0 6,5 27,5 27,0 19,1 14,7 11 6 22 12 ONO 1016,1 7 60 0,0

tt = temperatuur
td = dauwpunt
tt 5cm = temperatuur 5cm
tt -5cm = temperatuur -5cm
tt -20cm = temperatuur -20cm
tt -100cm = temperatuur -100cm
ff = windsnelheid
fx = windstoten
dd = windrichting
ppp = luchtdruk
vv = zicht
sd = Zonneschijnduur
rr = neerslag

Weerstations in de omgeving